[[{"header":{"parameterUnit":"m.s-1","parameterCategory":2,"la1":30.2992,"la2":30.254,"lo1":-89.0895,"lo2":-89.0443,"dy":0.0025,"dx":0.0025,"nx":19,"ny":19,"refTime":"2026-05-14T21:00:00:Z","depth":"0","parameterNumber":2,"parameterNumberName":"U-component_of_CURRENTS"},"data":[0,0,0,0.4088,0.409,0.4091,0.409,0.4111,0.4112,0,0,0,0,0,0,0,0,0,0,0,0.4071,0.4072,0.4088,0.409,0.4091,0.409,0.4111,0.4112,0,0,0,0,0,0,0,0,0,0,0,0.4071,0.4072,0.4073,0.4091,0.4091,0.409,0.411,0.4092,0,0,0,0,0,0,0,0,0,0,0.4083,0.4083,0.4072,0.4073,0.4091,0.4091,0.409,0.409,0.4093,0.4134,0,0.4164,0,0.4174,0.4119,0.4119,0,0,0,0.4034,0.408,0.4098,0.4074,0.4092,0.4091,0.4075,0.4091,0.4094,0.4139,0.4164,0.4165,0.4174,0.4119,0.412,0.4387,0.4389,0,0,0.4034,0.4048,0.4096,0.4102,0.4133,0.4075,0.4076,0.4092,0.4105,0.4164,0.4166,0.4175,0.412,0.4121,0.4385,0.4388,0,0,0,0.4072,0.4048,0.4062,0.41,0.4119,0.4077,0.4077,0.4102,0.4113,0.4166,0.4175,0.4121,0.4122,0.4383,0.4386,0.4507,0,0,0,0.4069,0.4075,0.4063,0.4067,0.412,0.4111,0.4087,0.411,0.4114,0.4175,0.4121,0.4123,0.438,0.4385,0.4499,0.4545,0,0,0,0.4064,0.4074,0.4089,0.4069,0.4098,0.411,0.4118,0.411,0.4123,0.4119,0.4123,0.4379,0.4384,0.4491,0.4533,0.4717,0,0,0,0.4053,0.4099,0.409,0.4157,0.4099,0.4193,0.4117,0.4182,0.4195,0.4121,0.4381,0.4386,0.4489,0.4526,0.4708,0.4615,0.4649,0,0,0.4102,0.4106,0.4148,0.4141,0.4238,0.4186,0.431,0.4297,0.4286,0.4361,0.4366,0.4501,0.4532,0.4715,0.4909,0.4933,0,0,0,0.4158,0.418,0.4215,0.4268,0.433,0.4393,0.4392,0.4434,0.4515,0.433,0.4572,0.4589,0.47,0.4627,0.4648,0.4343,0.4409,0.4409,0.4408,0.4175,0.4221,0.4299,0.4369,0.4447,0.4553,0.4634,0.4698,0.4654,0.475,0.4739,0.5029,0.4955,0.4969,0.4657,0.4803,0.4804,0.4804,0.4804,0.4245,0.4278,0.436,0.4444,0.4546,0.4654,0.4846,0.4878,0.5071,0.4954,0.5057,0.4821,0.4999,0.4658,0.4813,0.4812,0.4811,0.481,0.4809,0.4233,0.4254,0.4313,0.4445,0.4581,0.4721,0.4947,0.5079,0.5184,0.5295,0.5251,0.5246,0.4903,0.536,0.5361,0.5362,0.5363,0.5364,0.5364,0.418,0.4246,0.4318,0.4453,0.4541,0.4728,0.5028,0.5206,0.539,0.5403,0.5402,0.4974,0.52,0.5128,0.5381,0.5378,0.5376,0.5374,0.5373,0.417,0.418,0.4316,0.4399,0.4612,0.4714,0.5014,0.5313,0.554,0.5617,0.5161,0.5486,0.5449,0.5428,0.5364,0.5664,0.5664,0.5664,0.5664,0.4133,0.4156,0.4331,0.4476,0.4628,0.4734,0.4841,0.5057,0.5178,0.509,0.511,0.488,0.4881,0.4797,0.479,0.4707,0.4835,0.4833,0.4832,0.4147,0.4214,0.433,0.4474,0.4633,0.4683,0.4593,0.447,0.4615,0.4768,0.4716,0.4751,0.4376,0.4403,0.4232,0.4248,0.4098,0,0]},{"header":{"parameterUnit":"m.s-1","parameterCategory":2,"la1":30.2992,"la2":30.254,"lo1":-89.0895,"lo2":-89.0443,"dy":0.0025,"dx":0.0025,"nx":19,"ny":19,"refTime":"2026-05-14T21:00:00:Z","depth":"0","parameterNumber":3,"parameterNumberName":"V-component_of_CURRENTS"},"data":[0,0,0,0.0396,0.0396,0.0402,0.0402,0.0403,0.0403,0,0,0,0,0,0,0,0,0,0,0,0.039,0.039,0.0396,0.0396,0.0402,0.0402,0.0403,0.0403,0,0,0,0,0,0,0,0,0,0,0,0.039,0.039,0.039,0.0396,0.0402,0.0402,0.0403,0.0398,0,0,0,0,0,0,0,0,0,0,0.0392,0.039,0.039,0.039,0.0396,0.0402,0.0402,0.0398,0.0398,0.0402,0,0.0407,0,0.0411,0.0404,0.0404,0,0,0,0.0387,0.039,0.0395,0.039,0.0397,0.0402,0.0397,0.0398,0.0399,0.0403,0.0407,0.0407,0.0411,0.0404,0.0404,0.0522,0.0523,0,0,0.0387,0.0386,0.0395,0.0396,0.0404,0.0397,0.0397,0.0398,0.0399,0.0407,0.0407,0.0411,0.0404,0.0404,0.0521,0.0522,0,0,0,0.0392,0.0386,0.0391,0.0395,0.04,0.0397,0.0397,0.0399,0.0402,0.0408,0.0411,0.0404,0.0404,0.0519,0.0521,0.0685,0,0,0,0.0391,0.039,0.0391,0.039,0.0401,0.0401,0.0398,0.0402,0.0402,0.0411,0.0404,0.0404,0.0518,0.052,0.0678,0.0783,0,0,0,0.0389,0.0389,0.0393,0.039,0.0398,0.0401,0.0403,0.0402,0.0405,0.0404,0.0404,0.0517,0.052,0.0671,0.077,0.092,0,0,0,0.0384,0.0428,0.0393,0.0453,0.0398,0.0475,0.0403,0.0446,0.0457,0.0404,0.0518,0.0521,0.0669,0.0763,0.0912,0.1071,0.1123,0,0,0.0447,0.0436,0.0477,0.0447,0.0544,0.0473,0.059,0.056,0.05,0.0512,0.0515,0.068,0.077,0.0918,0.1235,0.1283,0,0,0,0.0504,0.0539,0.056,0.0604,0.0628,0.0686,0.0652,0.0654,0.0675,0.0519,0.0692,0.0745,0.0833,0.091,0.0949,0.0688,0.0534,0.0534,0.0534,0.0587,0.0618,0.071,0.0759,0.0806,0.0841,0.0897,0.0893,0.0798,0.0842,0.0886,0.1125,0.1209,0.124,0.0967,0.0876,0.0876,0.0877,0.0877,0.073,0.0798,0.0841,0.094,0.0988,0.1076,0.1141,0.1113,0.1213,0.1069,0.1146,0.1089,0.1292,0.0986,0.0888,0.0886,0.0885,0.0884,0.0883,0.0803,0.0844,0.0899,0.1045,0.1174,0.1233,0.1429,0.1417,0.1389,0.1469,0.1543,0.1541,0.1268,0.15,0.1501,0.1502,0.1503,0.1504,0.1505,0.0851,0.0917,0.1025,0.1163,0.1263,0.1429,0.16,0.1715,0.1817,0.1777,0.1777,0.1339,0.1316,0.1286,0.1523,0.1519,0.1517,0.1515,0.1514,0.0961,0.0969,0.1139,0.124,0.1488,0.1744,0.1885,0.2193,0.2268,0.2367,0.1818,0.1942,0.1917,0.1885,0.187,0.2243,0.2243,0.2243,0.2243,0.1013,0.1036,0.1254,0.1432,0.1667,0.1892,0.2369,0.2617,0.242,0.2211,0.1965,0.1789,0.1771,0.1721,0.1693,0.1665,0.1979,0.1977,0.1976,0.1096,0.1146,0.1309,0.1477,0.1743,0.2088,0.2597,0.2962,0.2479,0.1925,0.1572,0.1583,0.1269,0.1262,0.1127,0.1108,0.1043,0,0]}],[{"header":{"parameterUnit":"m.s-1","parameterCategory":2,"la1":30.2992,"la2":30.254,"lo1":-89.0895,"lo2":-89.0443,"dy":0.0025,"dx":0.0025,"nx":19,"ny":19,"refTime":"2026-05-14T21:00:00:Z","depth":"2","parameterNumber":2,"parameterNumberName":"U-component_of_CURRENTS"},"data":[0,0,0,0.3127,0.3129,0.3214,0.3214,0.3294,0.3295,0,0,0,0,0,0,0,0,0,0,0,0.3093,0.3094,0.3126,0.3129,0.3214,0.3214,0.3294,0.3295,0,0,0,0,0,0,0,0,0,0,0,0.3092,0.3093,0.3095,0.313,0.3214,0.3214,0.3294,0.3231,0,0,0,0,0,0,0,0,0,0,0.315,0.313,0.3093,0.3095,0.3131,0.3214,0.3214,0.3228,0.3235,0.3255,0,0.3287,0,0.3307,0.3302,0.3302,0,0,0,0.3105,0.3124,0.3155,0.3095,0.3132,0.3214,0.3169,0.3232,0.324,0.3264,0.3288,0.3291,0.3308,0.3303,0.3303,0.3483,0.3485,0,0,0.3101,0.3096,0.315,0.3161,0.3178,0.3167,0.3172,0.3237,0.325,0.3288,0.3293,0.3309,0.3303,0.3304,0.3482,0.3484,0,0,0,0.3103,0.3093,0.3122,0.3157,0.3183,0.317,0.3176,0.3247,0.326,0.3294,0.331,0.3304,0.3305,0.3481,0.3483,0.3576,0,0,0,0.3099,0.3097,0.312,0.3116,0.3182,0.3221,0.3185,0.3255,0.3263,0.331,0.3304,0.3306,0.348,0.3482,0.357,0.3556,0,0,0,0.3084,0.3095,0.3113,0.3116,0.3166,0.322,0.3235,0.3256,0.3274,0.3302,0.3306,0.3479,0.3482,0.3566,0.355,0.3674,0,0,0,0.3062,0.3098,0.3114,0.316,0.3165,0.3251,0.3235,0.3307,0.334,0.3304,0.348,0.3483,0.3564,0.3546,0.3669,0.3524,0.3536,0,0,0.3088,0.3101,0.3126,0.3143,0.321,0.3235,0.3333,0.3376,0.3389,0.3449,0.3453,0.3572,0.355,0.3673,0.369,0.3696,0,0,0,0.3121,0.3143,0.3166,0.3213,0.3273,0.3346,0.3404,0.3454,0.3549,0.3427,0.3605,0.3587,0.3662,0.3565,0.3572,0.3496,0.3496,0.3496,0.3495,0.3131,0.3161,0.3199,0.3256,0.3326,0.3443,0.3525,0.3609,0.3618,0.3699,0.3689,0.3871,0.3771,0.3774,0.3748,0.3748,0.3749,0.3749,0.3749,0.3134,0.3136,0.3208,0.3261,0.3362,0.3472,0.3648,0.3712,0.3864,0.3815,0.3887,0.3698,0.3785,0.3757,0.3756,0.3755,0.3754,0.3753,0.3753,0.3097,0.3096,0.3146,0.3222,0.3352,0.3502,0.3657,0.3808,0.3926,0.3999,0.3935,0.393,0.391,0.407,0.4071,0.4071,0.4072,0.4072,0.4072,0.3011,0.3054,0.3092,0.3191,0.3267,0.3431,0.3683,0.3797,0.3947,0.3995,0.3995,0.3979,0.3969,0.393,0.4081,0.4079,0.4078,0.4077,0.4077,0.2947,0.2972,0.3007,0.3067,0.3204,0.3239,0.352,0.3716,0.3901,0.3938,0.402,0.4018,0.3973,0.3964,0.3925,0.4067,0.4067,0.4067,0.4066,0.2895,0.291,0.29,0.2934,0.3006,0.3138,0.3153,0.3298,0.3597,0.3684,0.37,0.3565,0.3575,0.3498,0.35,0.3448,0.3465,0.3464,0.3463,0.2862,0.2867,0.2801,0.2813,0.2875,0.2951,0.2841,0.2783,0.3064,0.3433,0.3536,0.4038,0.3877,0.3877,0.3786,0.378,0.3706,0,0]},{"header":{"parameterUnit":"m.s-1","parameterCategory":2,"la1":30.2992,"la2":30.254,"lo1":-89.0895,"lo2":-89.0443,"dy":0.0025,"dx":0.0025,"nx":19,"ny":19,"refTime":"2026-05-14T21:00:00:Z","depth":"2","parameterNumber":3,"parameterNumberName":"V-component_of_CURRENTS"},"data":[0,0,0,0.0201,0.0201,0.0212,0.0212,0.0208,0.0208,0,0,0,0,0,0,0,0,0,0,0,0.0196,0.0197,0.0201,0.0201,0.0212,0.0212,0.0208,0.0208,0,0,0,0,0,0,0,0,0,0,0,0.0196,0.0197,0.0197,0.0201,0.0212,0.0212,0.0208,0.0203,0,0,0,0,0,0,0,0,0,0,0.0194,0.0192,0.0196,0.0197,0.0201,0.0212,0.0212,0.0203,0.0203,0.0199,0,0.0204,0,0.0207,0.0207,0.0207,0,0,0,0.0197,0.0192,0.0198,0.0197,0.0201,0.0212,0.0206,0.0203,0.0203,0.0199,0.0204,0.0204,0.0207,0.0207,0.0207,0.0251,0.0251,0,0,0.0196,0.0194,0.0198,0.0198,0.0209,0.0206,0.0206,0.0204,0.0203,0.0204,0.0204,0.0207,0.0207,0.0207,0.025,0.0251,0,0,0,0.0197,0.0194,0.02,0.0198,0.0203,0.0206,0.0207,0.0204,0.0207,0.0204,0.0207,0.0207,0.0207,0.025,0.0251,0.0366,0,0,0,0.0197,0.0195,0.02,0.0198,0.0203,0.0206,0.0207,0.0207,0.0207,0.0207,0.0207,0.0207,0.0249,0.025,0.0361,0.0438,0,0,0,0.0195,0.0194,0.0198,0.0198,0.0205,0.0206,0.0209,0.0207,0.0209,0.0207,0.0207,0.0249,0.025,0.0358,0.043,0.0518,0,0,0,0.0189,0.0224,0.0198,0.0245,0.0205,0.026,0.0209,0.0238,0.0245,0.0207,0.0249,0.0251,0.0356,0.0425,0.0512,0.0599,0.0631,0,0,0.0237,0.0229,0.0262,0.024,0.0313,0.0257,0.0332,0.031,0.0258,0.0247,0.0248,0.0363,0.0429,0.0517,0.067,0.07,0,0,0,0.0282,0.031,0.0326,0.0361,0.0374,0.0406,0.0375,0.0363,0.0356,0.0267,0.0355,0.0394,0.0446,0.0486,0.051,0.0256,0.0256,0.0256,0.0256,0.035,0.0373,0.0444,0.0475,0.0504,0.0512,0.0536,0.051,0.0436,0.0447,0.0482,0.0621,0.0664,0.0683,0.0459,0.0459,0.046,0.046,0.046,0.0458,0.0515,0.0543,0.0618,0.064,0.0697,0.0704,0.0667,0.0688,0.0587,0.0631,0.0597,0.0716,0.0469,0.0468,0.0466,0.0466,0.0465,0.0464,0.0517,0.0551,0.0591,0.0706,0.0806,0.0834,0.0979,0.0917,0.0824,0.0855,0.0881,0.088,0.0715,0.0868,0.0868,0.0869,0.087,0.087,0.0871,0.056,0.0607,0.0707,0.0815,0.0914,0.1061,0.1142,0.1183,0.1138,0.1039,0.1038,0.0759,0.0745,0.0738,0.0882,0.088,0.0879,0.0878,0.0877,0.0652,0.0667,0.0827,0.0928,0.1178,0.1411,0.1455,0.1548,0.1513,0.15,0.1142,0.1132,0.1111,0.109,0.109,0.1318,0.1318,0.1318,0.1318,0.071,0.0728,0.0962,0.1159,0.1404,0.1589,0.1863,0.1817,0.1611,0.1421,0.1416,0.1326,0.1307,0.1289,0.1264,0.1263,0.1536,0.1537,0.1537,0.0787,0.0853,0.1034,0.1231,0.1517,0.1812,0.2056,0.1973,0.1624,0.1539,0.1388,0.1345,0.1194,0.1172,0.1119,0.1089,0.1078,0,0]}],[{"header":{"parameterUnit":"m.s-1","parameterCategory":2,"la1":30.2992,"la2":30.254,"lo1":-89.0895,"lo2":-89.0443,"dy":0.0025,"dx":0.0025,"nx":19,"ny":19,"refTime":"2026-05-14T21:00:00:Z","depth":"4","parameterNumber":2,"parameterNumberName":"U-component_of_CURRENTS"},"data":[0,0,0,0.1954,0.1958,0.2156,0.2157,0.2335,0.2337,0,0,0,0,0,0,0,0,0,0,0,0.1891,0.1892,0.1953,0.1958,0.2156,0.2157,0.2335,0.2337,0,0,0,0,0,0,0,0,0,0,0,0.189,0.1892,0.1894,0.1959,0.2156,0.2157,0.2335,0.2206,0,0,0,0,0,0,0,0,0,0,0.2024,0.1985,0.1892,0.1894,0.196,0.2156,0.2157,0.2201,0.2214,0.2221,0,0.2258,0,0.2294,0.2346,0.2347,0,0,0,0.1967,0.1974,0.2014,0.1894,0.1961,0.2155,0.2069,0.2209,0.2224,0.2238,0.2261,0.2268,0.2297,0.2347,0.2348,0.2494,0.2494,0,0,0.1956,0.194,0.2004,0.2023,0.202,0.2063,0.2075,0.2219,0.2243,0.2262,0.2273,0.23,0.2348,0.2349,0.2493,0.2494,0,0,0,0.1919,0.1932,0.1971,0.2015,0.2054,0.2068,0.2083,0.2238,0.2247,0.2275,0.2302,0.2349,0.235,0.2493,0.2494,0.2545,0,0,0,0.1912,0.1909,0.1966,0.196,0.2052,0.2161,0.2098,0.2238,0.2255,0.2301,0.2349,0.2352,0.2492,0.2493,0.2542,0.2545,0,0,0,0.1881,0.1906,0.1928,0.1958,0.2038,0.216,0.218,0.2243,0.227,0.2347,0.2352,0.2492,0.2493,0.254,0.2542,0.2616,0,0,0,0.1857,0.1886,0.1929,0.1978,0.2036,0.2134,0.218,0.2283,0.2351,0.2349,0.2492,0.2493,0.2539,0.254,0.2613,0.2292,0,0,0,0.1867,0.1887,0.1913,0.1955,0.203,0.2107,0.2216,0.2332,0.2369,0.2439,0.2444,0.2543,0.2542,0.2616,0.2372,0,0,0,0,0.1898,0.1916,0.1949,0.2012,0.209,0.2195,0.2303,0.2364,0.2485,0.2415,0.2556,0.2553,0.2598,0.2402,0.25,0.25,0.2499,0.2499,0.2499,0.1884,0.1923,0.1969,0.2038,0.2119,0.2269,0.2365,0.2467,0.2505,0.2575,0.2605,0.2705,0.25,0.2626,0.2626,0.2626,0.2627,0.2627,0.2627,0.1872,0.1877,0.1974,0.2035,0.2156,0.2271,0.2446,0.2522,0.2673,0.2664,0.2707,0.248,0.2632,0.2631,0.2631,0.263,0.2629,0.2629,0.2629,0.1814,0.1816,0.1893,0.1991,0.2134,0.2295,0.2422,0.2578,0.2709,0.277,0.2602,0.2751,0.2737,0.2825,0.2825,0.2826,0.2826,0.2826,0.2826,0.1706,0.1775,0.1804,0.1943,0.2024,0.2182,0.2428,0.2526,0.27,0.2618,0.2808,0.2772,0.2766,0.2749,0.2832,0.2831,0.283,0.283,0.2829,0.1577,0.1636,0.1656,0.172,0.1874,0.1975,0.2253,0.2396,0.249,0.251,0.2541,0.2553,0.2509,0.251,0.2482,0.2489,0.2485,0.2481,0,0.1474,0.1506,0.1506,0.1534,0.1599,0.1817,0.1883,0.2061,0.2248,0.2164,0.2487,0.2513,0.2522,0.2463,0.2458,0.2418,0,0,0,0.1378,0.1401,0.1345,0.139,0.1445,0.163,0.1881,0.1873,0.2227,0.2241,0.2385,0.241,0.265,0.2849,0.2812,0.2804,0.2776,0,0]},{"header":{"parameterUnit":"m.s-1","parameterCategory":2,"la1":30.2992,"la2":30.254,"lo1":-89.0895,"lo2":-89.0443,"dy":0.0025,"dx":0.0025,"nx":19,"ny":19,"refTime":"2026-05-14T21:00:00:Z","depth":"4","parameterNumber":3,"parameterNumberName":"V-component_of_CURRENTS"},"data":[0,0,0,0.0156,0.0156,0.0169,0.0169,0.0168,0.0168,0,0,0,0,0,0,0,0,0,0,0,0.0152,0.0152,0.0156,0.0156,0.0169,0.0169,0.0168,0.0168,0,0,0,0,0,0,0,0,0,0,0,0.0152,0.0152,0.0152,0.0156,0.0169,0.0169,0.0168,0.0162,0,0,0,0,0,0,0,0,0,0,0.0152,0.0151,0.0152,0.0152,0.0156,0.0169,0.0169,0.0162,0.0163,0.0158,0,0.0163,0,0.0166,0.0168,0.0168,0,0,0,0.0154,0.0151,0.0155,0.0152,0.0157,0.0169,0.0163,0.0163,0.0163,0.0159,0.0163,0.0163,0.0166,0.0168,0.0168,0.0183,0.0183,0,0,0.0154,0.0152,0.0155,0.0155,0.0163,0.0162,0.0163,0.0163,0.0164,0.0163,0.0163,0.0166,0.0168,0.0168,0.0183,0.0183,0,0,0,0.0153,0.0152,0.0156,0.0155,0.0159,0.0163,0.0163,0.0164,0.0166,0.0163,0.0166,0.0168,0.0168,0.0182,0.0183,0.0267,0,0,0,0.0152,0.0151,0.0156,0.0155,0.0159,0.0164,0.0164,0.0166,0.0166,0.0166,0.0168,0.0168,0.0182,0.0183,0.0265,0.0324,0,0,0,0.0151,0.0151,0.0154,0.0155,0.0161,0.0164,0.0166,0.0166,0.0168,0.0168,0.0168,0.0182,0.0182,0.0262,0.0318,0.0359,0,0,0,0.0147,0.017,0.0154,0.0188,0.0161,0.02,0.0166,0.019,0.0196,0.0168,0.0182,0.0183,0.0261,0.0315,0.0355,0.0383,0,0,0,0.0179,0.0174,0.0198,0.0184,0.0236,0.0198,0.0246,0.0235,0.0197,0.018,0.0181,0.0266,0.0318,0.0358,0.0409,0,0,0,0,0.0211,0.0229,0.0241,0.0268,0.0279,0.0301,0.0278,0.0263,0.0253,0.0202,0.0251,0.0281,0.0304,0.0309,0.0185,0.0185,0.0185,0.0185,0.0185,0.0252,0.0272,0.0324,0.0348,0.037,0.0372,0.0382,0.0353,0.0304,0.0305,0.0339,0.0415,0.0421,0.0312,0.0312,0.0313,0.0313,0.0313,0.0314,0.0327,0.0368,0.0395,0.0452,0.047,0.0509,0.0495,0.0465,0.0459,0.0398,0.0415,0.0384,0.0322,0.032,0.0319,0.0318,0.0317,0.0317,0.0316,0.0362,0.0389,0.0426,0.0521,0.06,0.0618,0.0701,0.0647,0.0561,0.0575,0.0563,0.0476,0.0482,0.0577,0.0578,0.0578,0.0578,0.0579,0.0579,0.0388,0.0429,0.0512,0.0605,0.0692,0.0799,0.0824,0.0818,0.0729,0.0678,0.0606,0.0503,0.0495,0.0497,0.0586,0.0585,0.0584,0.0583,0.0583,0.0442,0.0464,0.0594,0.0684,0.0888,0.0964,0.0991,0.0943,0.0926,0.0869,0.0719,0.071,0.0686,0.0673,0.068,0.0827,0.0828,0.0829,0,0.0478,0.0496,0.0683,0.0848,0.1016,0.1078,0.1102,0.1073,0.0934,0.0918,0.0907,0.0741,0.0732,0.0704,0.0694,0.0703,0,0,0,0.0527,0.058,0.0717,0.0884,0.1079,0.1121,0.1116,0.1078,0.0964,0.0938,0.0847,0.0842,0.0731,0.0606,0.0548,0.0537,0.0537,0,0]}]]